Location: Kottag?dem
(16.8319°N, 80.6320°E)
Time: 11:47:10
(UTC+00:00)

X-37B - Visible Passes

Search period start: 12 August 2022 00:00
Search period end: 22 August 2022 00:00
Orbit: 328 x 343 km, 45.0° (Epoch: 27 July)

Date Brightness Start Highest point End Pass type
(mag) Time Alt. Az. Time Alt. Az. Time Alt. Az.
17 Aug 1.5 13:44:13 10° S 13:46:30 22° SE 13:47:13 20° ESE visible
17 Aug 2.0 23:24:31 10° NNW 23:27:12 35° NE 23:29:53 10° ESE visible
18 Aug 0.8 14:04:06 10° SW 14:06:51 56° NW 14:08:49 17° NNE visible
18 Aug 0.9 23:44:54 10° WNW 23:47:35 36° SW 23:50:16 10° SSE visible
19 Aug 3.5 14:25:59 10° WNW 14:27:21 13° NW 14:28:44 10° N visible
19 Aug 3.4 22:34:42 14° ESE 22:34:42 14° ESE 22:35:18 10° ESE visible
21 Aug 3.5 13:31:24 10° WNW 13:32:48 13° NW 13:34:12 10° N visible
